250P/Larson (2025)

Japanese version
Home page
Updated on October 6, 2024

---------------------------------------------------------------------

* Profile

* Orbital Elements

Epoch 2025 May 5.0 TT = JDT 2460800.5
T 2025 May 16.74521 TT                                  MPCW
q   2.2723302            (2000.0)            P               Q
n   0.13424057     Peri.   45.70972     -0.46703220     -0.85695976
a   3.7775787      Node    73.30388     +0.73260489     -0.51302536
e   0.3984692      Incl.   13.15226     +0.49514746     -0.04924375
P   7.34
From 418 observations 1995 Dec. 22-2018 Apr. 15, mean residual 0".5.

* Magnitudes Graph

        m1 = 12.0 + 5 log d + 15.0 log r(t - 110)

---------------------------------------------------------------------

The orbital elements are published on M.P.E.C. 2018-K95.
The magnitudes graphs are made with Comet for Windows.

---------------------------------------------------------------------

Copyright(C) Seiichi Yoshida (comet@aerith.net). All rights reserved.